Regional Weather Roundup
Issued by NWS

Home | Current Version | Previous Version | Text Only | Print | Product List | Glossary Off
Versions: 1 2 3 4 5 6 7 8 9 10 11 12 13 14 15 16 17 18 19 20 21 22 23 24 25 26 27 28 29 30 31 32 33 34 35 36 37 38 39 40 41 42 43 44 45 46 47 48 49 50

000
ASUS43 KLOT 310600
RWRIL

ILLINOIS REGIONAL WEATHER ROUNDUP
NATIONAL WEATHER SERVICE CHICAGO/ROMEOVILLE IL
100 AM CDT SUN AUG 31 2014

NOTE: "FAIR" INDICATES FEW OR NO CLOUDS BELOW 12,000 FEET WITH NO
SIGNIFICANT WEATHER AND/OR OBSTRUCTIONS TO VISIBILITY.

* THESE STATIONS ARE NOT UNDER NWS QUALITY CONTROL. THEY ALSO MAY NOT
  REPORT WEATHER SUCH AS PRECIPITATION OR FOG.

ILZ001-002-007-009-015-016-024-310700-
NORTHWEST ILLINOIS

CITY           SKY/WX    TMP DP  RH WIND       PRES   REMARKS
MOLINE         FAIR      66  64  93 CALM      29.92R
6HR MIN TEMP:  65; 6HR MAX TEMP:  79;

STERLING*      FAIR      64  63  94 CALM      29.93R
$$

ILZ003-004-008-010-011-017-018-310700-
NORTH CENTRAL ILLINOIS

CITY           SKY/WX    TMP DP  RH WIND       PRES   REMARKS
ROCKFORD       FAIR      67  64  90 S3        29.94R
6HR MIN TEMP:  66; 6HR MAX TEMP:  77;

$$

ILZ005-006-012>014-019>023-310700-
NORTHEAST ILLINOIS

CITY           SKY/WX    TMP DP  RH WIND       PRES   REMARKS
CHICAGO-OHARE  MOCLDY    71  64  78 S6        29.91F
6HR MIN TEMP:  70; 6HR MAX TEMP:  80;

CHICAGO-MIDWAY MOCLDY    74  69  85 SW6       29.92S
6HR MIN TEMP:  74; 6HR MAX TEMP:  82;

AURORA         FAIR      66  63  90 S3        29.92S
6HR MIN TEMP:  66; 6HR MAX TEMP:  77;

WAUKEGAN       FAIR      70  65  84 VRB3      29.90S
6HR MIN TEMP:  68; 6HR MAX TEMP:  77;

DUPAGE AIRPORT FAIR      69  65  86 S8        29.91F
6HR MIN TEMP:  68; 6HR MAX TEMP:  79;

WHEELING       FAIR      71  65  81 CALM      29.92S
6HR MIN TEMP:  71; 6HR MAX TEMP:  81;

NORTHERLY ISL    N/A     74  67  78 S3          N/A
$$

LMZ740>746-310700-
SOUTHERN LAKE MICHIGAN

STATION/POSITION SKY/WX   TEMP    WIND        PRES    VSBY  WAVE
                          AIR SEA DIR/SP/G                  HT/PER
                          (F)     (DEG/KT/KT) (MB)    (MI)  (FT/S)
SOUTHERN BUOY              71 69  210/  8/ 10 1012.3R         1/ 4
WAUKEGAN HARBOR            72     240/  6/  7   N/A
HARRISON CRIB              74     190/ 14/ 15   N/A
BURNHAM HARBOR             74     220/  3/ 10   N/A
CALUMET HARBOR             73     210/  4/  6 1012.1S
MICHIGAN CITY              71     170/ 10/ 13   N/A
MICHIGAN CITY 6N           71 72  210/  8/ 10   N/A           1/ 3
ST. JOSEPH                 72 71  210/ 10/ 12   N/A           2/ 4
$$

ILZ025>027-034>036-040-047-049-050-058-095>099-310700-
WEST-CENTRAL ILLINOIS

CITY           SKY/WX    TMP DP  RH WIND       PRES   REMARKS
MACOMB*        FAIR      67  67 100 CALM      29.94S
$$

ILZ028>032-037-038-041>044-048-051>054-059>061-310700-
CENTRAL ILLINOIS

CITY           SKY/WX    TMP DP  RH WIND       PRES   REMARKS
DECATUR        FAIR      74  70  87 S10       29.96R
PEORIA         FAIR      72  66  81 SE3       29.93S
6HR MIN TEMP:  72; 6HR MAX TEMP:  83;

SPRINGFIELD    FAIR      74  71  91 S6        29.94R
6HR MIN TEMP:  74; 6HR MAX TEMP:  82;

TAYLORVILLE    NOT AVBL
$$

ILZ033-039-045-046-055>057-062-063-310700-
EAST-CENTRAL ILLINOIS

CITY           SKY/WX    TMP DP  RH WIND       PRES   REMARKS
CHAMPAIGN      CLOUDY    73  71  93 S8        29.97R
MATTOON        LGT RAIN  73  70  90 S8        29.97S
$$

ILZ079-100>102-310700-
SOUTHWEST ILLINOIS

CITY           SKY/WX    TMP DP  RH WIND       PRES   REMARKS
BELLEVILLE     FAIR      73  73  99 VRB3      29.95S
CAHOKIA*       FAIR      73  71  93 SE3       29.95R
$$

ILZ064>066-069>071-074>076-080>082-084>086-088>090-092>094-310700-
SOUTH-CENTRAL ILLINOIS

CITY           SKY/WX    TMP DP  RH WIND       PRES   REMARKS
CARBONDALE     FAIR      72  70  93 S6        29.97F
6HR MIN TEMP:  72; 6HR MAX TEMP:  76;

MT. VERNON     CLOUDY    73  66  78 S6        29.99S
$$

ILZ067-068-072-073-078-083-087-091-310700-
SOUTHEAST ILLINOIS

CITY           SKY/WX    TMP DP  RH WIND       PRES   REMARKS
LAWRENCEVILLE  FAIR      71  70  96 S6        29.99F
ROBINSON*      FAIR      72  71  96 S6        30.00F
$$

ABBREVIATIONS USED IN REMARKS
   TC - TEMPERATURE IN CELSIUS
  WCI - WIND CHILL INDEX
   HX - HEAT INDEX
  VSB - VISIBILITY
$$



USA.gov is the U.S. government's official web portal to all federal, state and local government web resources and services.